| time (UTC) | temp F | wind direction | speed MPH | gust MPH | rain 1hr in | rain 24hr in | rain mn in | humidity % | barometer mb |
| 20260507111052 | 53 | 21 | 2.0 | 5.0 | 0.00 | 0.00 | 0.00 | 78 | 1020.4 |
| 20260507110558 | 53 | 17 | 1.0 | 4.0 | 0.00 | 0.00 | 0.00 | 78 | 1020.4 |
| 20260507110059 | 53 | 19 | 1.0 | 4.0 | 0.00 | 0.00 | 0.00 | 78 | 1020.4 |
| 20260507105553 | 53 | 31 | 1.0 | 4.0 | 0.00 | 0.00 | 0.00 | 78 | 1020.4 |
| 20260507105056 | 53 | 37 | 0.0 | 3.0 | 0.00 | 0.00 | 0.00 | 78 | 1020.5 |
| 20260507104555 | 53 | 37 | 0.0 | 3.0 | 0.00 | 0.00 | 0.00 | 78 | 1020.4 |
| 20260507104051 | 53 | 40 | 0.0 | 4.0 | 0.00 | 0.00 | 0.00 | 77 | 1020.5 |
| 20260507103557 | 53 | 0 | 0.0 | 4.0 | 0.00 | 0.00 | 0.00 | 77 | 1020.5 |
| 20260507103058 | 53 | 0 | 0.0 | 5.0 | 0.00 | 0.00 | 0.00 | 77 | 1020.5 |
| 20260507102552 | 53 | 0 | 1.0 | 7.0 | 0.00 | 0.00 | 0.00 | 77 | 1020.6 |
| 20260507102058 | 53 | 11 | 1.0 | 7.0 | 0.00 | 0.00 | 0.00 | 77 | 1020.6 |
| 20260507101556 | 53 | 19 | 2.0 | 5.0 | 0.00 | 0.00 | 0.00 | 77 | 1020.6 |
| 20260507101056 | 53 | 21 | 2.0 | 4.0 | 0.00 | 0.00 | 0.00 | 77 | 1020.6 |
| 20260507100555 | 53 | 0 | 0.0 | 6.0 | 0.00 | 0.00 | 0.00 | 76 | 1020.6 |
| 20260507100056 | 53 | 0 | 0.0 | 7.0 | 0.00 | 0.00 | 0.00 | 76 | 1020.7 |
| 20260507095553 | 53 | 5 | 2.0 | 7.0 | 0.00 | 0.00 | 0.00 | 76 | 1020.7 |
| 20260507095054 | 53 | 5 | 1.0 | 6.0 | 0.00 | 0.00 | 0.00 | 76 | 1020.8 |
| 20260507094600 | 53 | 12 | 2.0 | 8.0 | 0.00 | 0.00 | 0.00 | 76 | 1020.8 |
| 20260507094054 | 53 | 5 | 2.0 | 8.0 | 0.00 | 0.00 | 0.00 | 76 | 1020.9 |
| 20260507093553 | 53 | 21 | 1.0 | 4.0 | 0.00 | 0.00 | 0.00 | 75 | 1020.9 |
| 20260507093055 | 53 | 306 | 1.0 | 4.0 | 0.00 | 0.00 | 0.00 | 75 | 1021.0 |
| 20260507092559 | 54 | 360 | 0.0 | 4.0 | 0.00 | 0.00 | 0.00 | 75 | 1021.0 |
| 20260507092058 | 54 | 221 | 1.0 | 5.0 | 0.00 | 0.00 | 0.00 | 75 | 1021.0 |
| 20260507091554 | 54 | 0 | 1.0 | 6.0 | 0.00 | 0.00 | 0.00 | 75 | 1021.1 |
| 20260507091056 | 54 | 347 | 0.0 | 7.0 | 0.00 | 0.00 | 0.00 | 75 | 1021.1 |
| 20260507090557 | 54 | 323 | 1.0 | 7.0 | 0.00 | 0.00 | 0.00 | 75 | 1021.1 |
| 20260507090053 | 54 | 0 | 0.0 | 4.0 | 0.00 | 0.00 | 0.00 | 76 | 1021.2 |
| 20260507085554 | 54 | 0 | 1.0 | 5.0 | 0.00 | 0.00 | 0.00 | 75 | 1021.2 |
| 20260507085054 | 54 | 0 | 1.0 | 5.0 | 0.00 | 0.00 | 0.00 | 75 | 1021.1 |
| 20260507084559 | 54 | 9 | 1.0 | 4.0 | 0.00 | 0.00 | 0.00 | 75 | 1021.1 |
| 20260507084053 | 54 | 352 | 2.0 | 4.0 | 0.00 | 0.00 | 0.00 | 76 | 1021.1 |
| 20260507083554 | 54 | 23 | 1.0 | 4.0 | 0.00 | 0.00 | 0.00 | 76 | 1021.1 |
| 20260507083057 | 54 | 5 | 1.0 | 4.0 | 0.00 | 0.00 | 0.00 | 76 | 1021.1 |
| 20260507082555 | 54 | 327 | 0.0 | 4.0 | 0.00 | 0.00 | 0.00 | 77 | 1021.1 |
| 20260507082055 | 54 | 5 | 1.0 | 4.0 | 0.00 | 0.00 | 0.00 | 78 | 1021.1 |
| 20260507081553 | 54 | 355 | 0.0 | 6.0 | 0.00 | 0.00 | 0.00 | 78 | 1021.1 |
| 20260507081055 | 54 | 9 | 1.0 | 6.0 | 0.00 | 0.00 | 0.00 | 78 | 1021.2 |
| 20260507080556 | 54 | 5 | 0.0 | 4.0 | 0.00 | 0.00 | 0.00 | 78 | 1021.1 |
| 20260507080056 | 54 | 0 | 1.0 | 4.0 | 0.00 | 0.00 | 0.00 | 78 | 1021.1 |
| 20260507075555 | 54 | 42 | 0.0 | 5.0 | 0.00 | 0.00 | 0.00 | 78 | 1021.2 |
| 20260507075055 | 54 | 360 | 0.0 | 5.0 | 0.00 | 0.00 | 0.00 | 78 | 1021.2 |
| 20260507074554 | 54 | 14 | 1.0 | 5.0 | 0.00 | 0.00 | 0.00 | 78 | 1021.2 |
| 20260507074053 | 54 | 309 | 0.0 | 4.0 | 0.00 | 0.00 | 0.00 | 78 | 1021.2 |
| 20260507073556 | 54 | 0 | 0.0 | 4.0 | 0.00 | 0.00 | 0.00 | 78 | 1021.1 |
| 20260507073103 | 54 | 355 | 1.0 | 4.0 | 0.00 | 0.00 | 0.00 | 78 | 1021.1 |
| 20260507072554 | 54 | 0 | 1.0 | 3.0 | 0.00 | 0.00 | 0.00 | 78 | 1021.1 |
| 20260507072058 | 54 | 10 | 0.0 | 5.0 | 0.00 | 0.00 | 0.00 | 78 | 1021.1 |
| 20260507071554 | 54 | 0 | 1.0 | 5.0 | 0.00 | 0.00 | 0.00 | 79 | 1021.0 |
| 20260507071056 | 54 | 44 | 2.0 | 5.0 | 0.00 | 0.00 | 0.00 | 78 | 1021.0 |
| 20260507070556 | 54 | 9 | 1.0 | 5.0 | 0.00 | 0.00 | 0.00 | 78 | 1021.0 |
| 20260507070105 | 54 | 352 | 2.0 | 5.0 | 0.00 | 0.00 | 0.00 | 78 | 1021.0 |
| 20260507065600 | 54 | 29 | 2.0 | 8.0 | 0.00 | 0.00 | 0.00 | 78 | 1021.0 |
| 20260507065055 | 54 | 0 | 2.0 | 8.0 | 0.00 | 0.00 | 0.00 | 78 | 1021.0 |
| 20260507064558 | 54 | 352 | 2.0 | 7.0 | 0.00 | 0.00 | 0.00 | 79 | 1021.0 |
| 20260507064055 | 54 | 5 | 2.0 | 8.0 | 0.00 | 0.00 | 0.00 | 79 | 1021.1 |
| 20260507063553 | 55 | 19 | 3.0 | 8.0 | 0.00 | 0.00 | 0.00 | 79 | 1020.9 |
| 20260507063057 | 55 | 13 | 3.0 | 7.0 | 0.00 | 0.00 | 0.00 | 79 | 1020.9 |
| 20260507062553 | 55 | 0 | 1.0 | 5.0 | 0.00 | 0.00 | 0.00 | 79 | 1021.0 |
| 20260507062053 | 55 | 5 | 1.0 | 5.0 | 0.00 | 0.00 | 0.00 | 79 | 1021.1 |
| 20260507061555 | 55 | 0 | 1.0 | 7.0 | 0.00 | 0.00 | 0.00 | 80 | 1021.0 |
| 20260507061056 | 55 | 24 | 2.0 | 7.0 | 0.00 | 0.00 | 0.00 | 80 | 1021.0 |
| 20260507060555 | 55 | 12 | 1.0 | 9.0 | 0.00 | 0.00 | 0.00 | 80 | 1021.1 |
| 20260507060055 | 55 | 52 | 2.0 | 9.0 | 0.00 | 0.00 | 0.00 | 79 | 1021.1 |
| 20260507055556 | 55 | 13 | 3.0 | 11.0 | 0.00 | 0.00 | 0.00 | 79 | 1021.1 |
| 20260507055059 | 55 | 360 | 4.0 | 11.0 | 0.00 | 0.00 | 0.00 | 79 | 1021.1 |
| 20260507054556 | 55 | 5 | 2.0 | 11.0 | 0.00 | 0.00 | 0.00 | 79 | 1021.0 |
| 20260507054055 | 55 | 344 | 3.0 | 8.0 | 0.00 | 0.00 | 0.00 | 79 | 1021.0 |
| 20260507053556 | 55 | 13 | 1.0 | 8.0 | 0.00 | 0.00 | 0.00 | 79 | 1021.0 |
| 20260507053102 | 56 | 5 | 2.0 | 6.0 | 0.00 | 0.00 | 0.00 | 78 | 1021.0 |
| 20260507052555 | 56 | 0 | 2.0 | 9.0 | 0.00 | 0.00 | 0.00 | 78 | 1021.0 |
| 20260507052055 | 56 | 5 | 3.0 | 9.0 | 0.00 | 0.00 | 0.00 | 78 | 1021.0 |
| 20260507051555 | 56 | 9 | 1.0 | 8.0 | 0.00 | 0.00 | 0.00 | 78 | 1020.9 |
| 20260507051053 | 56 | 352 | 2.0 | 8.0 | 0.00 | 0.00 | 0.00 | 78 | 1020.9 |
| 20260507050556 | 56 | 360 | 3.0 | 8.0 | 0.00 | 0.00 | 0.00 | 78 | 1021.0 |
| 20260507050057 | 56 | 84 | 1.0 | 8.0 | 0.00 | 0.00 | 0.00 | 78 | 1020.9 |
| 20260507045553 | 56 | 5 | 2.0 | 5.0 | 0.00 | 0.00 | 0.00 | 78 | 1021.0 |
| 20260507045056 | 56 | 360 | 1.0 | 7.0 | 0.00 | 0.00 | 0.00 | 78 | 1020.9 |
| 20260507044623 | 56 | 311 | 2.0 | 7.0 | 0.00 | 0.00 | 0.00 | 78 | 1021.0 |
| 20260507044056 | 57 | 352 | 2.0 | 8.0 | 0.00 | 0.00 | 0.00 | 77 | 1020.9 |
| 20260507043555 | 57 | 34 | 3.0 | 10.0 | 0.00 | 0.00 | 0.00 | 77 | 1020.9 |
| 20260507043053 | 57 | 34 | 4.0 | 11.0 | 0.00 | 0.00 | 0.00 | 77 | 1020.8 |
| 20260507042556 | 57 | 318 | 3.0 | 11.0 | 0.00 | 0.00 | 0.00 | 77 | 1020.8 |
| 20260507042056 | 57 | 26 | 4.0 | 11.0 | 0.00 | 0.00 | 0.00 | 76 | 1020.8 |
| 20260507041555 | 57 | 5 | 4.0 | 9.0 | 0.00 | 0.00 | 0.00 | 76 | 1020.7 |
| 20260507041053 | 58 | 40 | 2.0 | 11.0 | 0.00 | 0.00 | 0.00 | 77 | 1020.6 |
| 20260507040556 | 58 | 333 | 2.0 | 11.0 | 0.00 | 0.00 | 0.00 | 76 | 1020.6 |
| 20260507040101 | 58 | 15 | 3.0 | 14.0 | 0.00 | 0.00 | 0.00 | 76 | 1020.5 |
| 20260507035553 | 58 | 33 | 1.0 | 14.0 | 0.00 | 0.00 | 0.00 | 76 | 1020.4 |
| 20260507035053 | 58 | 5 | 4.0 | 11.0 | 0.00 | 0.00 | 0.00 | 76 | 1020.4 |
| 20260507034602 | 59 | 355 | 2.0 | 8.0 | 0.00 | 0.00 | 0.00 | 76 | 1020.3 |
| 20260507034056 | 59 | 47 | 1.0 | 10.0 | 0.00 | 0.00 | 0.00 | 76 | 1020.2 |
| 20260507033554 | 59 | 336 | 1.0 | 10.0 | 0.00 | 0.00 | 0.00 | 76 | 1020.2 |
| 20260507033120 | 59 | 310 | 1.0 | 9.0 | 0.00 | 0.00 | 0.00 | 76 | 1020.0 |
| 20260507032556 | 59 | 5 | 1.0 | 4.0 | 0.00 | 0.00 | 0.00 | 77 | 1020.0 |
| 20260507032055 | 59 | 14 | 1.0 | 5.0 | 0.00 | 0.00 | 0.00 | 77 | 1019.8 |
| 20260507031603 | 59 | 11 | 2.0 | 5.0 | 0.00 | 0.00 | 0.00 | 77 | 1019.9 |
| 20260507031057 | 59 | 346 | 0.0 | 4.0 | 0.00 | 0.00 | 0.00 | 77 | 1019.8 |
| 20260507030557 | 59 | 350 | 1.0 | 4.0 | 0.00 | 0.00 | 0.00 | 77 | 1019.8 |
| 20260507030110 | 59 | 349 | 1.0 | 5.0 | 0.00 | 0.00 | 0.00 | 77 | 1019.7 |
| 20260507025556 | 59 | 321 | 2.0 | 5.0 | 0.00 | 0.00 | 0.00 | 76 | 1019.7 |
| 20260507025054 | 60 | 0 | 1.0 | 4.0 | 0.00 | 0.00 | 0.00 | 76 | 1019.6 |
| 20260507024609 | 60 | 297 | 1.0 | 8.0 | 0.00 | 0.00 | 0.00 | 76 | 1019.6 |
| 20260507024053 | 60 | 0 | 1.0 | 8.0 | 0.00 | 0.00 | 0.00 | 75 | 1019.5 |
| 20260507023556 | 60 | 11 | 2.0 | 8.0 | 0.00 | 0.00 | 0.00 | 75 | 1019.5 |
| 20260507023056 | 61 | 29 | 2.0 | 8.0 | 0.00 | 0.00 | 0.00 | 74 | 1019.4 |
| 20260507022554 | 61 | 336 | 1.0 | 7.0 | 0.00 | 0.00 | 0.00 | 74 | 1019.4 |
| 20260507022053 | 61 | 13 | 2.0 | 5.0 | 0.00 | 0.00 | 0.00 | 74 | 1019.4 |
| 20260507021558 | 61 | 11 | 1.0 | 5.0 | 0.00 | 0.00 | 0.00 | 73 | 1019.5 |
| 20260507021057 | 62 | 27 | 2.0 | 10.0 | 0.00 | 0.00 | 0.00 | 73 | 1019.4 |
| 20260507020557 | 62 | 0 | 2.0 | 10.0 | 0.00 | 0.00 | 0.00 | 73 | 1019.4 |
| 20260507015555 | 62 | 322 | 2.0 | 12.0 | 0.00 | 0.00 | 0.00 | 71 | 1019.6 |
| 20260507015057 | 63 | 331 | 2.0 | 10.0 | 0.00 | 0.00 | 0.00 | 71 | 1019.5 |
| 20260507014559 | 63 | 5 | 2.0 | 8.0 | 0.00 | 0.00 | 0.00 | 71 | 1019.5 |
| 20260507014054 | 63 | 347 | 2.0 | 13.0 | 0.00 | 0.00 | 0.00 | 72 | 1019.6 |
| 20260507013558 | 63 | 9 | 3.0 | 13.0 | 0.00 | 0.00 | 0.00 | 71 | 1019.6 |
| 20260507013102 | 63 | 345 | 2.0 | 10.0 | 0.00 | 0.00 | 0.00 | 71 | 1019.5 |
| 20260507012553 | 64 | 315 | 4.0 | 11.0 | 0.00 | 0.00 | 0.00 | 70 | 1019.5 |
| 20260507012053 | 64 | 40 | 2.0 | 11.0 | 0.00 | 0.00 | 0.00 | 70 | 1019.4 |
| 20260507011558 | 64 | 5 | 3.0 | 8.0 | 0.00 | 0.00 | 0.00 | 70 | 1019.4 |
| 20260507011052 | 65 | 19 | 2.0 | 7.0 | 0.00 | 0.00 | 0.00 | 70 | 1019.4 |
| 20260507010553 | 65 | 311 | 2.0 | 8.0 | 0.00 | 0.00 | 0.00 | 70 | 1019.4 |
| 20260507010054 | 65 | 352 | 2.0 | 8.0 | 0.00 | 0.00 | 0.00 | 70 | 1019.4 |
| 20260507005553 | 66 | 355 | 1.0 | 7.0 | 0.00 | 0.00 | 0.00 | 70 | 1019.4 |
| 20260507005054 | 66 | 350 | 2.0 | 7.0 | 0.00 | 0.00 | 0.00 | 70 | 1019.3 |
| 20260507004554 | 67 | 24 | 1.0 | 9.0 | 0.00 | 0.00 | 0.00 | 70 | 1019.4 |
| 20260507004055 | 67 | 333 | 2.0 | 9.0 | 0.00 | 0.00 | 0.00 | 70 | 1019.3 |
| 20260507003556 | 67 | 11 | 3.0 | 9.0 | 0.00 | 0.00 | 0.00 | 69 | 1019.2 |
| 20260507003101 | 68 | 51 | 1.0 | 6.0 | 0.00 | 0.00 | 0.00 | 69 | 1019.2 |
| 20260507002558 | 68 | 360 | 2.0 | 5.0 | 0.00 | 0.00 | 0.00 | 68 | 1019.1 |
| 20260507002059 | 68 | 0 | 0.0 | 3.0 | 0.00 | 0.00 | 0.00 | 67 | 1019.2 |
| 20260507001556 | 68 | 0 | 0.0 | 6.0 | 0.00 | 0.00 | 0.00 | 67 | 1019.2 |
| 20260507001057 | 67 | 0 | 2.0 | 6.0 | 0.00 | 0.00 | 0.00 | 65 | 1019.2 |
| 20260507000557 | 68 | 0 | 0.0 | 4.0 | 0.00 | 0.00 | 0.00 | 66 | 1019.2 |
| 20260507000054 | 68 | 5 | 1.0 | 5.0 | 0.00 | 0.00 | 0.00 | 66 | 1019.3 |
| 20260506235552 | 69 | 313 | 1.0 | 5.0 | 0.00 | 0.00 | 0.00 | 64 | 1019.1 |
| 20260506235053 | 68 | 0 | 0.0 | 5.0 | 0.00 | 0.00 | 0.00 | 66 | 1019.2 |
| 20260506234604 | 68 | 277 | 1.0 | 5.0 | 0.00 | 0.00 | 0.00 | 65 | 1019.2 |
| 20260506234056 | 67 | 0 | 2.0 | 5.0 | 0.00 | 0.00 | 0.00 | 66 | 1019.2 |
| 20260506233556 | 67 | 123 | 0.0 | 3.0 | 0.00 | 0.00 | 0.00 | 67 | 1019.3 |
| 20260506233057 | 67 | 0 | 0.0 | 3.0 | 0.00 | 0.00 | 0.00 | 67 | 1019.3 |
| 20260506232556 | 67 | 126 | 0.0 | 4.0 | 0.00 | 0.00 | 0.00 | 67 | 1019.3 |
| 20260506232100 | 66 | 160 | 1.0 | 4.0 | 0.00 | 0.00 | 0.00 | 67 | 1019.4 |
| 20260506231556 | 67 | 88 | 1.0 | 4.0 | 0.00 | 0.00 | 0.00 | 68 | 1019.4 |
| 20260506231056 | 67 | 139 | 0.0 | 4.0 | 0.00 | 0.00 | 0.00 | 68 | 1019.5 |
| 20260506230555 | 67 | 129 | 1.0 | 4.0 | 0.00 | 0.00 | 0.00 | 68 | 1019.6 |
| 20260506230107 | 67 | 252 | 1.0 | 5.0 | 0.00 | 0.00 | 0.00 | 68 | 1019.5 |
| 20260506225553 | 66 | 232 | 1.0 | 5.0 | 0.00 | 0.00 | 0.00 | 68 | 1019.6 |
| 20260506225057 | 67 | 198 | 0.0 | 3.0 | 0.00 | 0.00 | 0.00 | 69 | 1019.7 |
| 20260506224602 | 66 | 0 | 0.0 | 4.0 | 0.00 | 0.00 | 0.00 | 69 | 1019.6 |
| 20260506224054 | 65 | 98 | 2.0 | 4.0 | 0.00 | 0.00 | 0.00 | 69 | 1019.8 |
| 20260506223556 | 66 | 99 | 2.0 | 4.0 | 0.00 | 0.00 | 0.00 | 70 | 1019.8 |
| 20260506223101 | 66 | 84 | 1.0 | 4.0 | 0.00 | 0.00 | 0.00 | 70 | 1019.8 |
| 20260506222556 | 65 | 145 | 1.0 | 4.0 | 0.00 | 0.00 | 0.00 | 70 | 1019.9 |
| 20260506222057 | 65 | 153 | 0.0 | 3.0 | 0.00 | 0.00 | 0.00 | 70 | 1019.9 |
| 20260506221558 | 65 | 94 | 1.0 | 5.0 | 0.00 | 0.00 | 0.00 | 70 | 1020.1 |
| 20260506221056 | 65 | 117 | 1.0 | 11.0 | 0.00 | 0.00 | 0.00 | 70 | 1020.1 |
| 20260506220555 | 65 | 136 | 1.0 | 11.0 | 0.00 | 0.00 | 0.00 | 71 | 1020.1 |
| 20260506220057 | 65 | 229 | 3.0 | 8.0 | 0.00 | 0.00 | 0.00 | 70 | 1020.0 |
| 20260506215555 | 66 | 279 | 2.0 | 9.0 | 0.00 | 0.00 | 0.00 | 69 | 1019.9 |
| 20260506215056 | 66 | 95 | 2.0 | 9.0 | 0.00 | 0.00 | 0.00 | 68 | 1019.9 |
| 20260506214558 | 66 | 184 | 3.0 | 10.0 | 0.00 | 0.00 | 0.00 | 70 | 1019.9 |
| 20260506214054 | 64 | 128 | 3.0 | 10.0 | 0.00 | 0.00 | 0.00 | 72 | 1019.9 |
| 20260506213552 | 65 | 132 | 3.0 | 10.0 | 0.00 | 0.00 | 0.00 | 71 | 1019.9 |
| 20260506213101 | 64 | 203 | 2.0 | 7.0 | 0.00 | 0.00 | 0.00 | 72 | 1020.1 |
| 20260506212556 | 65 | 206 | 1.0 | 7.0 | 0.00 | 0.00 | 0.00 | 71 | 1020.2 |
| 20260506212053 | 65 | 290 | 3.0 | 8.0 | 0.00 | 0.00 | 0.00 | 70 | 1020.2 |
| 20260506211558 | 65 | 264 | 3.0 | 8.0 | 0.00 | 0.00 | 0.00 | 72 | 1020.3 |
| 20260506211056 | 65 | 0 | 1.0 | 4.0 | 0.00 | 0.00 | 0.00 | 71 | 1020.3 |
| 20260506210552 | 65 | 337 | 1.0 | 4.0 | 0.00 | 0.00 | 0.00 | 72 | 1020.3 |
| 20260506210058 | 64 | 17 | 1.0 | 8.0 | 0.00 | 0.00 | 0.00 | 72 | 1020.3 |
| 20260506205555 | 64 | 38 | 2.0 | 9.0 | 0.00 | 0.00 | 0.00 | 72 | 1020.2 |
| 20260506205054 | 65 | 109 | 4.0 | 9.0 | 0.00 | 0.00 | 0.00 | 71 | 1020.3 |
| 20260506204559 | 65 | 244 | 1.0 | 9.0 | 0.00 | 0.00 | 0.00 | 71 | 1020.2 |
| 20260506204053 | 65 | 288 | 3.0 | 9.0 | 0.00 | 0.00 | 0.00 | 71 | 1020.3 |
| 20260506203554 | 65 | 150 | 1.0 | 8.0 | 0.00 | 0.00 | 0.00 | 75 | 1020.2 |
| 20260506203104 | 64 | 252 | 2.0 | 8.0 | 0.00 | 0.00 | 0.00 | 73 | 1020.2 |
| 20260506202554 | 63 | 138 | 1.0 | 6.0 | 0.00 | 0.00 | 0.00 | 75 | 1020.2 |
| 20260506202057 | 62 | 194 | 2.0 | 7.0 | 0.00 | 0.00 | 0.00 | 76 | 1020.4 |
| 20260506201558 | 62 | 134 | 3.0 | 7.0 | 0.00 | 0.00 | 0.00 | 77 | 1020.3 |
| 20260506201057 | 62 | 185 | 2.0 | 7.0 | 0.00 | 0.00 | 0.00 | 77 | 1020.4 |
| 20260506200556 | 62 | 111 | 1.0 | 6.0 | 0.00 | 0.00 | 0.00 | 77 | 1020.5 |
| 20260506200059 | 62 | 183 | 2.0 | 6.0 | 0.00 | 0.00 | 0.00 | 77 | 1020.5 |
| 20260506195552 | 62 | 284 | 2.0 | 6.0 | 0.00 | 0.00 | 0.00 | 77 | 1020.5 |
| 20260506195053 | 62 | 170 | 0.0 | 4.0 | 0.00 | 0.00 | 0.00 | 77 | 1020.6 |
| 20260506194559 | 62 | 267 | 0.0 | 5.0 | 0.00 | 0.00 | 0.00 | 77 | 1020.7 |
| 20260506194055 | 61 | 223 | 2.0 | 7.0 | 0.00 | 0.00 | 0.00 | 78 | 1020.7 |
| 20260506193558 | 61 | 175 | 2.0 | 7.0 | 0.00 | 0.00 | 0.00 | 78 | 1020.7 |
| 20260506193058 | 62 | 290 | 4.0 | 7.0 | 0.00 | 0.00 | 0.00 | 77 | 1020.7 |
| 20260506192554 | 62 | 210 | 2.0 | 7.0 | 0.00 | 0.00 | 0.00 | 77 | 1020.7 |
| 20260506192057 | 62 | 196 | 2.0 | 5.0 | 0.00 | 0.00 | 0.00 | 77 | 1020.6 |
| 20260506191558 | 62 | 223 | 1.0 | 4.0 | 0.00 | 0.00 | 0.00 | 78 | 1020.6 |
| 20260506191054 | 61 | 0 | 1.0 | 5.0 | 0.00 | 0.00 | 0.00 | 77 | 1020.5 |
| 20260506190554 | 61 | 126 | 2.0 | 7.0 | 0.00 | 0.00 | 0.00 | 77 | 1020.5 |
| 20260506190101 | 61 | 0 | 2.0 | 7.0 | 0.00 | 0.00 | 0.00 | 79 | 1020.5 |
| 20260506185554 | 61 | 172 | 2.0 | 7.0 | 0.00 | 0.00 | 0.00 | 77 | 1020.4 |
| 20260506185053 | 60 | 235 | 2.0 | 8.0 | 0.00 | 0.00 | 0.00 | 78 | 1020.4 |
| 20260506184600 | 61 | 192 | 2.0 | 8.0 | 0.00 | 0.00 | 0.00 | 78 | 1020.4 |
| 20260506184054 | 61 | 135 | 1.0 | 6.0 | 0.00 | 0.00 | 0.00 | 78 | 1020.4 |
| 20260506183556 | 60 | 127 | 3.0 | 6.0 | 0.00 | 0.00 | 0.00 | 78 | 1020.4 |
| 20260506183100 | 61 | 267 | 0.0 | 5.0 | 0.00 | 0.00 | 0.00 | 79 | 1020.4 |
| 20260506182554 | 60 | 155 | 1.0 | 5.0 | 0.00 | 0.00 | 0.00 | 79 | 1020.5 |
| 20260506182054 | 59 | 164 | 2.0 | 5.0 | 0.00 | 0.00 | 0.00 | 81 | 1020.4 |
| 20260506181558 | 59 | 0 | 0.0 | 3.0 | 0.00 | 0.00 | 0.00 | 82 | 1020.5 |
| 20260506181054 | 59 | 202 | 1.0 | 5.0 | 0.00 | 0.00 | 0.00 | 83 | 1020.5 |
| 20260506180554 | 59 | 257 | 1.0 | 5.0 | 0.00 | 0.00 | 0.00 | 83 | 1020.5 |
| 20260506180100 | 58 | 200 | 1.0 | 5.0 | 0.00 | 0.00 | 0.00 | 83 | 1020.5 |
| 20260506175556 | 59 | 302 | 0.0 | 4.0 | 0.00 | 0.00 | 0.00 | 83 | 1020.5 |
| 20260506175052 | 58 | 302 | 0.0 | 4.0 | 0.00 | 0.00 | 0.00 | 84 | 1020.5 |
| 20260506174559 | 58 | 289 | 1.0 | 4.0 | 0.00 | 0.00 | 0.00 | 83 | 1020.5 |
| 20260506174053 | 58 | 0 | 0.0 | 3.0 | 0.00 | 0.00 | 0.00 | 84 | 1020.5 |
| 20260506173553 | 58 | 284 | 1.0 | 3.0 | 0.00 | 0.00 | 0.00 | 85 | 1020.4 |
| 20260506173127 | 58 | 180 | 1.0 | 3.0 | 0.00 | 0.00 | 0.00 | 84 | 1020.2 |
| 20260506172556 | 58 | 268 | 0.0 | 3.0 | 0.00 | 0.00 | 0.00 | 84 | 1020.3 |
| 20260506172100 | 57 | 290 | 1.0 | 2.0 | 0.00 | 0.00 | 0.00 | 83 | 1020.1 |
| 20260506171615 | 58 | 19 | 0.0 | 3.0 | 0.00 | 0.00 | 0.00 | 84 | 1020.2 |
| 20260506171056 | 57 | 19 | 0.0 | 3.0 | 0.00 | 0.00 | 0.00 | 84 | 1020.4 |
| 20260506170557 | 57 | 0 | 0.0 | 3.0 | 0.00 | 0.00 | 0.00 | 84 | 1020.3 |
| 20260506170056 | 57 | 0 | 0.0 | 2.0 | 0.00 | 0.00 | 0.00 | 84 | 1020.4 |
| 20260506165554 | 58 | 247 | 0.0 | 2.0 | 0.00 | 0.00 | 0.00 | 84 | 1020.3 |
| 20260506165054 | 58 | 0 | 0.0 | 2.0 | 0.00 | 0.00 | 0.00 | 85 | 1020.3 |
| 20260506164601 | 57 | 0 | 0.0 | 2.0 | 0.00 | 0.00 | 0.00 | 85 | 1020.2 |
| 20260506164053 | 57 | 247 | 0.0 | 2.0 | 0.00 | 0.00 | 0.00 | 85 | 1020.2 |
| 20260506163554 | 57 | 0 | 1.0 | 3.0 | 0.00 | 0.00 | 0.00 | 85 | 1020.4 |
| 20260506163107 | 57 | 177 | 1.0 | 3.0 | 0.00 | 0.00 | 0.00 | 85 | 1020.2 |
| 20260506162555 | 57 | 0 | 0.0 | 0.0 | 0.00 | 0.00 | 0.00 | 84 | 1020.1 |
| 20260506162054 | 57 | 0 | 0.0 | 0.0 | 0.00 | 0.00 | 0.00 | 84 | 1020.0 |
| 20260506161636 | 57 | 0 | 0.0 | 2.0 | 0.00 | 0.00 | 0.00 | 84 | 1020.1 |
| 20260506161054 | 57 | 0 | 0.0 | 3.0 | 0.00 | 0.00 | 0.00 | 84 | 1020.2 |
| 20260506160554 | 57 | 70 | 1.0 | 4.0 | 0.00 | 0.00 | 0.00 | 84 | 1019.9 |
| 20260506160109 | 57 | 51 | 2.0 | 6.0 | 0.00 | 0.00 | 0.00 | 84 | 1019.9 |
| 20260506155556 | 57 | 62 | 1.0 | 6.0 | 0.00 | 0.00 | 0.00 | 84 | 1019.8 |
| 20260506155054 | 57 | 74 | 1.0 | 6.0 | 0.00 | 0.00 | 0.00 | 85 | 1019.5 |
| 20260506154600 | 57 | 141 | 1.0 | 6.0 | 0.00 | 0.00 | 0.00 | 86 | 1019.4 |
| 20260506154054 | 56 | 107 | 2.0 | 4.0 | 0.00 | 0.00 | 0.00 | 86 | 1019.8 |
| 20260506153554 | 56 | 40 | 0.0 | 3.0 | 0.00 | 0.00 | 0.00 | 85 | 1020.1 |
| 20260506153100 | 56 | 40 | 1.0 | 4.0 | 0.00 | 0.00 | 0.00 | 85 | 1020.3 |
| 20260506152554 | 56 | 39 | 0.0 | 4.0 | 0.00 | 0.00 | 0.00 | 86 | 1020.3 |
| 20260506152054 | 56 | 312 | 1.0 | 4.0 | 0.00 | 0.00 | 0.00 | 86 | 1020.3 |
| 20260506151558 | 56 | 0 | 0.0 | 4.0 | 0.00 | 0.00 | 0.00 | 86 | 1020.3 |
| 20260506151054 | 56 | 319 | 0.0 | 4.0 | 0.00 | 0.00 | 0.00 | 86 | 1020.2 |
| 20260506150554 | 56 | 38 | 1.0 | 4.0 | 0.00 | 0.00 | 0.00 | 85 | 1020.2 |
| 20260506150057 | 56 | 17 | 0.0 | 3.0 | 0.00 | 0.00 | 0.00 | 85 | 1020.2 |
| 20260506145558 | 56 | 0 | 0.0 | 4.0 | 0.00 | 0.00 | 0.00 | 85 | 1020.1 |
| 20260506145055 | 56 | 17 | 1.0 | 4.0 | 0.00 | 0.00 | 0.00 | 85 | 1020.1 |
| 20260506144555 | 57 | 0 | 0.0 | 4.0 | 0.00 | 0.00 | 0.00 | 85 | 1020.1 |
| 20260506144054 | 57 | 293 | 0.0 | 0.0 | 0.00 | 0.00 | 0.00 | 85 | 1020.0 |
| 20260506143554 | 57 | 0 | 0.0 | 0.0 | 0.00 | 0.00 | 0.00 | 85 | 1019.8 |
| 20260506143058 | 57 | 0 | 0.0 | 0.0 | 0.00 | 0.00 | 0.00 | 85 | 1019.6 |
| 20260506142553 | 57 | 0 | 0.0 | 0.0 | 0.00 | 0.00 | 0.00 | 85 | 1019.5 |
| 20260506142057 | 57 | 0 | 0.0 | 1.0 | 0.00 | 0.00 | 0.00 | 85 | 1019.4 |
| 20260506141558 | 56 | 0 | 0.0 | 2.0 | 0.00 | 0.00 | 0.00 | 85 | 1019.4 |
| 20260506141055 | 56 | 0 | 0.0 | 2.0 | 0.00 | 0.00 | 0.00 | 85 | 1019.3 |
| 20260506140555 | 56 | 0 | 0.0 | 2.0 | 0.00 | 0.00 | 0.00 | 86 | 1019.4 |
| 20260506140055 | 56 | 0 | 0.0 | 1.0 | 0.00 | 0.00 | 0.00 | 85 | 1019.5 |
| 20260506135555 | 56 | 0 | 0.0 | 0.0 | 0.00 | 0.00 | 0.00 | 85 | 1019.3 |
| 20260506135054 | 56 | 0 | 0.0 | 0.0 | 0.00 | 0.00 | 0.00 | 85 | 1019.4 |
| 20260506134601 | 56 | 0 | 0.0 | 0.0 | 0.00 | 0.00 | 0.00 | 85 | 1019.4 |
| 20260506134054 | 56 | 0 | 0.0 | 0.0 | 0.00 | 0.00 | 0.00 | 86 | 1019.2 |
| 20260506133554 | 56 | 0 | 0.0 | 0.0 | 0.00 | 0.00 | 0.00 | 86 | 1019.2 |
| 20260506133054 | 56 | 0 | 0.0 | 0.0 | 0.00 | 0.00 | 0.00 | 86 | 1019.2 |
| 20260506132554 | 56 | 0 | 0.0 | 0.0 | 0.00 | 0.00 | 0.00 | 86 | 1019.2 |
| 20260506132054 | 56 | 0 | 0.0 | 1.0 | 0.00 | 0.00 | 0.00 | 86 | 1019.1 |
| 20260506131602 | 56 | 0 | 0.0 | 1.0 | 0.00 | 0.00 | 0.00 | 86 | 1019.0 |
| 20260506131054 | 56 | 0 | 0.0 | 1.0 | 0.00 | 0.00 | 0.00 | 86 | 1019.0 |
| 20260506130554 | 56 | 0 | 0.0 | 1.0 | 0.00 | 0.00 | 0.00 | 86 | 1019.1 |
| 20260506130121 | 56 | 0 | 0.0 | 1.0 | 0.00 | 0.00 | 0.00 | 86 | 1019.1 |
| 20260506125553 | 56 | 0 | 0.0 | 1.0 | 0.00 | 0.00 | 0.00 | 86 | 1018.9 |
| 20260506125053 | 56 | 0 | 0.0 | 2.0 | 0.00 | 0.00 | 0.00 | 86 | 1018.9 |
| 20260506124600 | 56 | 0 | 0.0 | 3.0 | 0.00 | 0.00 | 0.00 | 86 | 1018.9 |
| 20260506124054 | 56 | 0 | 0.0 | 3.0 | 0.00 | 0.00 | 0.00 | 86 | 1018.9 |
| 20260506123555 | 56 | 0 | 1.0 | 3.0 | 0.00 | 0.00 | 0.00 | 86 | 1019.0 |
| 20260506123054 | 56 | 29 | 0.0 | 3.0 | 0.00 | 0.00 | 0.00 | 86 | 1018.9 |
| 20260506122557 | 56 | 0 | 0.0 | 3.0 | 0.00 | 0.00 | 0.00 | 86 | 1019.0 |
| 20260506122056 | 56 | 37 | 0.0 | 4.0 | 0.00 | 0.00 | 0.00 | 85 | 1018.9 |
| 20260506121556 | 56 | 0 | 1.0 | 5.0 | 0.00 | 0.00 | 0.00 | 85 | 1018.9 |
| 20260506121056 | 56 | 0 | 1.0 | 5.0 | 0.00 | 0.00 | 0.00 | 85 | 1018.8 |
| 20260506120554 | 56 | 31 | 2.0 | 5.0 | 0.00 | 0.00 | 0.00 | 85 | 1019.0 |
| 20260506120106 | 56 | 29 | 0.0 | 5.0 | 0.00 | 0.00 | 0.00 | 85 | 1018.8 |
| 20260506115553 | 56 | 0 | 1.0 | 5.0 | 0.00 | 0.00 | 0.00 | 85 | 1018.8 |
| 20260506115053 | 56 | 19 | 2.0 | 5.0 | 0.00 | 0.00 | 0.00 | 85 | 1018.6 |
| 20260506114554 | 56 | 19 | 1.0 | 4.0 | 0.00 | 0.00 | 0.00 | 84 | 1018.6 |
| 20260506114053 | 56 | 20 | 1.0 | 4.0 | 0.00 | 0.00 | 0.00 | 84 | 1018.5 |
| 20260506113554 | 56 | 5 | 1.0 | 4.0 | 0.00 | 0.00 | 0.00 | 84 | 1018.5 |
| 20260506113100 | 56 | 34 | 1.0 | 3.0 | 0.00 | 0.00 | 0.00 | 84 | 1018.5 |
| 20260506112553 | 56 | 5 | 1.0 | 4.0 | 0.00 | 0.00 | 0.00 | 84 | 1018.5 |
| 20260506112054 | 56 | 5 | 1.0 | 6.0 | 0.00 | 0.00 | 0.00 | 84 | 1018.4 |
| 20260506111557 | 56 | 23 | 2.0 | 6.0 | 0.00 | 0.00 | 0.00 | 84 | 1018.4 |